Wheeler AAF, HI

4:14 PM HST on September 25, 2017 (GMT -1000)
Wheeler Army Air Field

Weather History for PHHI - October, 2012

Change the Weather History Date:

Saturday, October 13, 2012

  Actual Average Record
Temperature  
Mean Temperature 74 °F -  
Max Temperature 81 °F 80 °F 86 °F (1999)
Min Temperature 68 °F 67 °F 64 °F (2011)
Cooling Degree Days 10    
Growing Degree Days 24 (Base 50)    
Moisture  
Dew Point 67 °F    
Average Humidity 73    
Maximum Humidity 86    
Minimum Humidity 59    
Precipitation  
Precipitation 0.01 in - - ()
Sea Level Pressure  
Sea Level Pressure 30.10 in    
Wind  
Wind Speed 6 mph (ENE)    
Max Wind Speed 15 mph    
Max Gust Speed 21 mph    
Visibility 10 miles    
Events Rain    
Averages and records for this station are not official NWS values.
T = Trace of Precipitation, MM = Missing Value Source: NWS Daily Summary

Daily Weather History Graph

Daily Weather History Graph

Search for Another Location

Airport or City:

Trip Planner

Search our weather history database for the weather conditions in past years. The results will help you decide how hot, cold, wet, or windy it might be!

Date:

Astronomy

Oct. 13, 2012 Rise Set
Actual Time 6:27 AM HST 6:08 PM HST
Civil Twilight 6:05 AM HST 6:31 PM HST
Nautical Twilight 5:39 AM HST 6:56 PM HST
Astronomical Twilight 5:13 AM HST 7:22 PM HST
Moon 4:40 AM HST (10/13) 4:53 PM HST (10/13)
Length of Visible Light 12h 25m
Length of Day
11h 41m
Waning Crescent, 4% of the Moon is Illuminated
Oct 13
Waning Crescent
Oct 15
New
Oct 21
First Quarter
Oct 29
Full
Nov 6
Last Quarter

Hourly Weather History & Observations

Time (HST) Temp. Heat Index Dew Point Humidity Pressure Visibility Wind Dir Wind Speed Gust Speed Precip Events Conditions
12:55 AM 74.1 °F - 65.5 °F 74% 30.09 in 10.0 mi East 5.8 mph - N/A   Scattered Clouds
1:55 AM 73.0 °F - 64.9 °F 76% 30.09 in 10.0 mi Calm Calm - N/A   Clear
2:55 AM 72.3 °F - 64.6 °F 77% 30.07 in 10.0 mi North 3.5 mph - N/A   Clear
3:55 AM 70.7 °F - 63.9 °F 79% 30.07 in 10.0 mi Calm Calm - N/A   Scattered Clouds
4:55 AM 69.4 °F - 63.1 °F 80% 30.08 in 10.0 mi Calm Calm - N/A   Partly Cloudy
5:55 AM 68.7 °F - 63.3 °F 83% 30.09 in 10.0 mi WNW 3.5 mph - N/A   Clear
6:55 AM 70.5 °F - 64.6 °F 81% 30.11 in 10.0 mi West 3.5 mph - N/A   Clear
7:55 AM 73.2 °F - 66.0 °F 78% 30.13 in 10.0 mi NE 5.8 mph - N/A   Clear
8:55 AM 77.2 °F - 66.4 °F 69% 30.12 in 10.0 mi ENE 12.7 mph - N/A   Mostly Cloudy
9:55 AM 77.9 °F - 67.1 °F 69% 30.13 in 10.0 mi ENE 12.7 mph - N/A   Scattered Clouds
10:55 AM 80.8 °F 82.9 °F 66.4 °F 61% 30.12 in 10.0 mi ENE 15.0 mph - N/A   Partly Cloudy
11:11 AM 80.6 °F 82.7 °F 66.2 °F 61% 30.12 in 10.0 mi East 9.2 mph - N/A   Mostly Cloudy
11:55 AM 79.5 °F - 66.6 °F 64% 30.10 in 10.0 mi East 11.5 mph - N/A   Overcast
12:55 PM 79.7 °F - 67.6 °F 66% 30.07 in 10.0 mi NE 10.4 mph - N/A   Overcast
1:55 PM 79.5 °F - 67.6 °F 67% 30.06 in 10.0 mi NE 6.9 mph - N/A   Overcast
2:55 PM 81.3 °F 83.3 °F 65.7 °F 59% 30.06 in 10.0 mi East 15.0 mph 20.7 mph N/A   Clear
3:55 PM 80.4 °F 82.4 °F 65.8 °F 61% 30.06 in 10.0 mi ENE 11.5 mph 19.6 mph N/A   Scattered Clouds
4:02 PM 78.8 °F - 66.2 °F 65% 30.06 in 10.0 mi East 8.1 mph 17.3 mph N/A   Mostly Cloudy
4:55 PM 78.3 °F - 66.9 °F 68% 30.06 in 10.0 mi ENE 12.7 mph 18.4 mph N/A   Mostly Cloudy
5:06 PM 78.8 °F - 66.2 °F 65% 30.06 in 10.0 mi NE 10.4 mph - N/A   Scattered Clouds
5:14 PM 78.8 °F - 68.0 °F 69% 30.06 in 10.0 mi ENE 8.1 mph - N/A   Mostly Cloudy
5:21 PM 77.0 °F - 66.2 °F 69% 30.07 in 10.0 mi NE 5.8 mph 16.1 mph N/A   Scattered Clouds
5:44 PM 77.0 °F - 68.0 °F 74% 30.07 in 10.0 mi NE 8.1 mph - N/A   Mostly Cloudy
5:55 PM 77.5 °F - 67.6 °F 71% 30.07 in 10.0 mi ENE 11.5 mph - N/A   Mostly Cloudy
6:55 PM 76.5 °F - 67.3 °F 73% 30.09 in 10.0 mi NE 6.9 mph - N/A   Overcast
7:55 PM 76.1 °F - 67.1 °F 74% 30.11 in 10.0 mi ENE 8.1 mph - N/A   Overcast
8:55 PM 75.9 °F - 66.4 °F 72% 30.12 in 10.0 mi ENE 4.6 mph - N/A   Overcast
9:48 PM 75.2 °F - 68.0 °F 78% 30.13 in 10.0 mi ENE 5.8 mph - N/A   Light Drizzle
9:55 PM 75.4 °F - 67.3 °F 76% 30.13 in 10.0 mi East 5.8 mph - 0.00 in   Light Drizzle
10:35 PM 73.4 °F - 68.0 °F 83% 30.13 in 7.0 mi ENE 6.9 mph - N/A Rain Light Rain
10:38 PM 73.4 °F - 68.0 °F 83% 30.13 in 9.0 mi ENE 8.1 mph - N/A   Light Drizzle
10:43 PM 73.4 °F - 68.0 °F 83% 30.13 in 10.0 mi ENE 8.1 mph - N/A   Light Drizzle
10:55 PM 73.6 °F - 68.2 °F 83% 30.13 in 9.0 mi ENE 8.1 mph - 0.01 in Rain Light Rain
11:46 PM 73.4 °F - 68.0 °F 83% 30.13 in 7.0 mi NE 3.5 mph - N/A Rain Light Rain
11:55 PM 72.7 °F - 68.4 °F 86% 30.13 in 10.0 mi NE 5.8 mph - 0.00 in   Light Drizzle